Location: Recife
(8.0585°S, 34.8848°W)
Time: 14:27:49
(UTC-03:00)

Tiros 1 despin weight - Pass Details

Date: 18 April 2026
Orbit: 555 x 591 km, 48.2° (Epoch: 14 May)

Event Time Altitude Azimuth Distance (km) Brightness Sun altitude
Rises 01:16:23 0° 295° (WNW) 2,808 - -60.9°
Reaches altitude 10° 01:19:03 10° 280° (W) 1,910 - -60.3°
Maximum altitude 01:22:29 22° 228° (SW) 1,290 - -59.4°
Drops below altitude 10° 01:25:55 10° 176° (S) 1,909 - -58.6°
Sets 01:28:36 0° 161° (SSE) 2,806 - -57.9°
